Time,TemperatureF,DewpointF,PressureIn,WindDirection,WindDirectionDegrees,WindSpeedMPH,WindSpeedGustMPH,Humidity,HourlyPrecipIn,Conditions,Clouds,dailyrainin,SoftwareType,DateUTC
2013-07-25 00:01:00,68.3,65.9,29.91,North,9,0.0,0.0,92,0.00,,,0.00,Wunderground v.1.13,2013-07-25 04:01:00,
2013-07-25 00:02:00,68.3,65.9,29.91,North,9,0.0,0.0,92,0.00,,,0.00,Wunderground v.1.13,2013-07-25 04:02:00,
2013-07-25 00:03:00,68.3,65.9,29.91,North,9,0.0,0.0,92,0.00,,,0.00,Wunderground v.1.13,2013-07-25 04:03:00,
2013-07-25 00:05:00,68.3,65.9,29.91,North,9,0.0,0.0,92,0.00,,,0.00,Wunderground v.1.13,2013-07-25 04:05:00,
2013-07-25 00:10:00,68.2,66.1,29.91,North,9,0.0,0.0,93,0.00,,,0.00,Wunderground v.1.13,2013-07-25 04:10:00,
2013-07-25 00:15:00,68.2,66.1,29.91,North,9,0.0,0.0,93,0.00,,,0.00,Wunderground v.1.13,2013-07-25 04:15:00,
2013-07-25 00:21:00,68.2,66.1,29.92,North,9,0.0,0.0,93,0.00,,,0.00,Wunderground v.1.13,2013-07-25 04:21:00,
2013-07-25 00:26:00,68.3,66.5,29.92,North,9,0.0,0.0,94,0.00,,,0.00,Wunderground v.1.13,2013-07-25 04:26:00,
2013-07-25 00:32:00,68.4,66.6,29.92,North,9,0.0,0.0,94,0.00,,,0.00,Wunderground v.1.13,2013-07-25 04:32:00,
2013-07-25 00:38:00,68.4,66.6,29.92,North,9,0.0,0.0,94,0.00,,,0.00,Wunderground v.1.13,2013-07-25 04:38:00,
2013-07-25 00:44:00,68.5,66.7,29.92,North,9,0.0,0.0,94,0.00,,,0.00,Wunderground v.1.13,2013-07-25 04:44:00,
2013-07-25 00:49:00,68.5,66.7,29.92,North,9,0.0,0.0,94,0.00,,,0.00,Wunderground v.1.13,2013-07-25 04:49:00,
2013-07-25 00:55:00,68.4,66.6,29.92,North,9,0.0,0.0,94,0.00,,,0.00,Wunderground v.1.13,2013-07-25 04:55:00,
2013-07-25 01:00:00,68.4,66.6,29.92,North,9,0.0,0.0,94,0.00,,,0.00,Wunderground v.1.13,2013-07-25 05:00:00,
2013-07-25 01:06:00,68.3,66.5,29.93,North,9,0.0,0.0,94,0.00,,,0.00,Wunderground v.1.13,2013-07-25 05:06:00,
2013-07-25 01:11:00,68.3,66.8,29.92,North,9,0.0,0.0,95,0.00,,,0.00,Wunderground v.1.13,2013-07-25 05:11:00,
2013-07-25 01:17:00,68.4,66.9,29.92,North,9,0.0,0.0,95,0.00,,,0.00,Wunderground v.1.13,2013-07-25 05:17:00,
2013-07-25 01:22:00,68.4,66.9,29.92,North,9,0.0,0.0,95,0.00,,,0.00,Wunderground v.1.13,2013-07-25 05:22:00,
2013-07-25 01:28:00,68.3,66.8,29.92,North,9,0.0,0.0,95,0.00,,,0.00,Wunderground v.1.13,2013-07-25 05:28:00,
2013-07-25 01:33:00,68.2,66.7,29.92,North,9,0.0,0.0,95,0.00,,,0.00,Wunderground v.1.13,2013-07-25 05:33:00,
2013-07-25 01:39:00,68.2,66.7,29.92,North,9,0.0,0.0,95,0.00,,,0.00,Wunderground v.1.13,2013-07-25 05:39:00,
2013-07-25 01:44:00,68.2,66.7,29.92,North,9,0.0,0.0,95,0.00,,,0.00,Wunderground v.1.13,2013-07-25 05:44:00,
2013-07-25 01:50:00,68.1,66.6,29.92,North,9,0.0,0.0,95,0.00,,,0.00,Wunderground v.1.13,2013-07-25 05:50:00,
2013-07-25 01:55:00,68.1,66.6,29.92,North,9,0.0,0.0,95,0.00,,,0.00,Wunderground v.1.13,2013-07-25 05:55:00,
2013-07-25 02:01:00,68.0,66.5,29.92,North,9,0.0,0.0,95,0.00,,,0.00,Wunderground v.1.13,2013-07-25 06:01:00,
2013-07-25 02:06:00,68.0,66.5,29.91,North,9,0.0,0.0,95,0.00,,,0.00,Wunderground v.1.13,2013-07-25 06:06:00,
2013-07-25 02:12:00,67.9,66.4,29.92,North,9,0.0,0.0,95,0.00,,,0.00,Wunderground v.1.13,2013-07-25 06:12:00,
2013-07-25 02:18:00,67.9,66.4,29.91,North,9,0.0,0.0,95,0.00,,,0.00,Wunderground v.1.13,2013-07-25 06:18:00,
2013-07-25 02:23:00,67.9,66.4,29.91,North,9,0.0,0.0,95,0.00,,,0.00,Wunderground v.1.13,2013-07-25 06:23:00,
2013-07-25 02:29:00,67.9,66.4,29.91,North,9,0.0,0.0,95,0.00,,,0.00,Wunderground v.1.13,2013-07-25 06:29:00,
2013-07-25 02:34:00,67.8,66.3,29.91,North,9,0.0,0.0,95,0.00,,,0.00,Wunderground v.1.13,2013-07-25 06:34:00,
2013-07-25 02:40:00,67.8,66.6,29.91,North,9,0.0,0.0,96,0.00,,,0.00,Wunderground v.1.13,2013-07-25 06:40:00,
2013-07-25 02:45:00,67.8,66.6,29.91,North,9,0.0,0.0,96,0.00,,,0.00,Wunderground v.1.13,2013-07-25 06:45:00,
2013-07-25 02:50:00,67.8,66.6,29.91,North,9,0.0,0.0,96,0.00,,,0.00,Wunderground v.1.13,2013-07-25 06:50:00,
2013-07-25 02:55:00,67.8,66.6,29.91,North,9,0.0,0.0,96,0.00,,,0.00,Wunderground v.1.13,2013-07-25 06:55:00,
2013-07-25 03:01:00,67.8,66.6,29.91,North,9,0.0,0.0,96,0.00,,,0.00,Wunderground v.1.13,2013-07-25 07:01:00,
2013-07-25 03:07:00,67.8,66.6,29.91,North,9,0.0,0.0,96,0.00,,,0.00,Wunderground v.1.13,2013-07-25 07:07:00,
2013-07-25 03:12:00,67.7,66.5,29.91,North,9,0.0,0.0,96,0.00,,,0.00,Wunderground v.1.13,2013-07-25 07:12:00,
2013-07-25 03:18:00,67.7,66.5,29.91,North,9,0.0,0.0,96,0.00,,,0.00,Wunderground v.1.13,2013-07-25 07:18:00,
2013-07-25 03:24:00,67.7,66.5,29.91,North,9,0.0,0.0,96,0.00,,,0.00,Wunderground v.1.13,2013-07-25 07:24:00,
2013-07-25 03:29:00,67.7,66.5,29.91,North,9,0.0,0.0,96,0.00,,,0.00,Wunderground v.1.13,2013-07-25 07:29:00,
2013-07-25 03:34:00,67.8,66.6,29.90,North,9,0.0,0.0,96,0.00,,,0.00,Wunderground v.1.13,2013-07-25 07:34:00,
2013-07-25 03:39:00,67.7,66.5,29.90,North,9,0.0,0.0,96,0.00,,,0.00,Wunderground v.1.13,2013-07-25 07:39:00,
2013-07-25 03:43:00,67.7,66.5,29.90,North,9,0.0,0.0,96,0.00,,,0.00,Wunderground v.1.13,2013-07-25 07:43:00,
2013-07-25 03:49:00,67.6,66.4,29.90,North,9,0.0,0.0,96,0.00,,,0.00,Wunderground v.1.13,2013-07-25 07:49:00,
2013-07-25 03:54:00,67.5,66.3,29.90,North,9,0.0,0.0,96,0.00,,,0.00,Wunderground v.1.13,2013-07-25 07:54:00,
2013-07-25 04:00:00,67.4,66.2,29.90,North,9,0.0,0.0,96,0.00,,,0.00,Wunderground v.1.13,2013-07-25 08:00:00,
2013-07-25 04:05:00,67.3,66.1,29.90,North,9,0.0,0.0,96,0.00,,,0.00,Wunderground v.1.13,2013-07-25 08:05:00,
2013-07-25 04:10:00,67.3,66.1,29.90,North,9,0.0,0.0,96,0.00,,,0.00,Wunderground v.1.13,2013-07-25 08:10:00,
2013-07-25 04:15:00,67.2,66.0,29.91,North,9,0.0,0.0,96,0.00,,,0.00,Wunderground v.1.13,2013-07-25 08:15:00,
2013-07-25 04:21:00,67.2,66.0,29.91,North,9,0.0,0.0,96,0.00,,,0.00,Wunderground v.1.13,2013-07-25 08:21:00,
2013-07-25 04:27:00,67.2,66.0,29.91,North,9,0.0,0.0,96,0.00,,,0.00,Wunderground v.1.13,2013-07-25 08:27:00,
2013-07-25 04:32:00,67.2,66.0,29.91,North,9,0.0,0.0,96,0.00,,,0.00,Wunderground v.1.13,2013-07-25 08:32:00,
2013-07-25 04:37:00,67.1,65.9,29.91,North,9,0.0,0.0,96,0.00,,,0.00,Wunderground v.1.13,2013-07-25 08:37:00,
2013-07-25 04:42:00,67.0,65.8,29.91,North,9,0.0,0.0,96,0.00,,,0.00,Wunderground v.1.13,2013-07-25 08:42:00,
2013-07-25 04:48:00,66.9,65.7,29.91,North,9,0.0,0.0,96,0.00,,,0.00,Wunderground v.1.13,2013-07-25 08:48:00,
2013-07-25 04:54:00,66.8,65.6,29.91,North,9,0.0,0.0,96,0.00,,,0.00,Wunderground v.1.13,2013-07-25 08:54:00,
2013-07-25 04:59:00,66.7,65.5,29.91,North,9,0.0,0.0,96,0.00,,,0.00,Wunderground v.1.13,2013-07-25 08:59:00,
2013-07-25 05:04:00,66.6,65.4,29.91,North,9,0.0,0.0,96,0.00,,,0.00,Wunderground v.1.13,2013-07-25 09:04:00,
2013-07-25 05:09:00,66.5,65.3,29.91,North,9,0.0,0.0,96,0.00,,,0.00,Wunderground v.1.13,2013-07-25 09:09:00,
2013-07-25 05:15:00,66.4,65.2,29.92,North,9,0.0,0.0,96,0.00,,,0.00,Wunderground v.1.13,2013-07-25 09:15:00,
2013-07-25 05:20:00,66.3,65.1,29.92,North,9,0.0,0.0,96,0.00,,,0.00,Wunderground v.1.13,2013-07-25 09:20:00,
2013-07-25 05:25:00,66.2,65.0,29.92,North,9,0.0,0.0,96,0.00,,,0.00,Wunderground v.1.13,2013-07-25 09:25:00,
2013-07-25 05:31:00,66.1,64.9,29.92,North,9,0.0,0.0,96,0.00,,,0.00,Wunderground v.1.13,2013-07-25 09:31:00,
2013-07-25 05:37:00,66.0,64.8,29.92,North,9,0.0,0.0,96,0.00,,,0.00,Wunderground v.1.13,2013-07-25 09:37:00,
2013-07-25 05:43:00,65.9,64.7,29.92,North,9,0.0,0.0,96,0.00,,,0.00,Wunderground v.1.13,2013-07-25 09:43:00,
2013-07-25 05:49:00,65.7,64.5,29.92,North,9,0.0,0.0,96,0.00,,,0.00,Wunderground v.1.13,2013-07-25 09:49:00,
2013-07-25 05:55:00,65.5,64.3,29.92,North,9,0.0,0.0,96,0.00,,,0.00,Wunderground v.1.13,2013-07-25 09:55:00,
2013-07-25 06:00:00,65.4,64.2,29.93,North,9,0.0,0.0,96,0.00,,,0.00,Wunderground v.1.13,2013-07-25 10:00:00,
2013-07-25 06:06:00,65.3,64.1,29.93,North,9,0.0,0.0,96,0.00,,,0.00,Wunderground v.1.13,2013-07-25 10:06:00,
2013-07-25 06:11:00,65.2,64.0,29.93,North,9,0.0,0.0,96,0.00,,,0.00,Wunderground v.1.13,2013-07-25 10:11:00,
2013-07-25 06:17:00,65.0,63.8,29.93,North,9,0.0,0.0,96,0.00,,,0.00,Wunderground v.1.13,2013-07-25 10:17:00,
2013-07-25 06:22:00,64.9,63.7,29.94,North,9,0.0,0.0,96,0.00,,,0.00,Wunderground v.1.13,2013-07-25 10:22:00,
2013-07-25 06:27:00,64.8,63.6,29.94,North,9,0.0,0.0,96,0.00,,,0.00,Wunderground v.1.13,2013-07-25 10:27:00,
2013-07-25 06:33:00,64.7,63.5,29.94,North,9,0.0,0.0,96,0.00,,,0.00,Wunderground v.1.13,2013-07-25 10:33:00,
2013-07-25 06:38:00,64.5,63.3,29.95,North,9,0.0,0.0,96,0.00,,,0.00,Wunderground v.1.13,2013-07-25 10:38:00,
2013-07-25 06:44:00,64.4,63.2,29.95,North,9,0.0,0.0,96,0.00,,,0.00,Wunderground v.1.13,2013-07-25 10:44:00,
2013-07-25 06:49:00,64.3,63.1,29.95,North,9,0.0,0.0,96,0.00,,,0.00,Wunderground v.1.13,2013-07-25 10:49:00,
2013-07-25 06:55:00,64.3,63.1,29.95,North,9,0.0,0.0,96,0.00,,,0.00,Wunderground v.1.13,2013-07-25 10:55:00,
2013-07-25 07:00:00,64.3,63.1,29.95,North,9,0.0,0.0,96,0.00,,,0.00,Wunderground v.1.13,2013-07-25 11:00:00,
2013-07-25 07:06:00,64.3,63.1,29.95,North,9,0.0,0.0,96,0.00,,,0.00,Wunderground v.1.13,2013-07-25 11:06:00,
2013-07-25 07:12:00,64.4,63.5,29.95,North,9,0.0,0.0,97,0.00,,,0.00,Wunderground v.1.13,2013-07-25 11:12:00,
2013-07-25 07:17:00,64.5,63.6,29.96,North,9,0.0,0.0,97,0.00,,,0.00,Wunderground v.1.13,2013-07-25 11:17:00,
2013-07-25 07:23:00,64.6,63.7,29.96,North,9,0.0,0.0,97,0.00,,,0.00,Wunderground v.1.13,2013-07-25 11:23:00,
2013-07-25 07:28:00,64.8,63.9,29.96,North,9,0.0,0.0,97,0.00,,,0.00,Wunderground v.1.13,2013-07-25 11:28:00,
2013-07-25 07:33:00,65.0,64.1,29.96,North,9,0.0,0.0,97,0.00,,,0.00,Wunderground v.1.13,2013-07-25 11:33:00,
2013-07-25 07:39:00,65.4,64.8,29.96,North,9,0.0,0.0,98,0.00,,,0.00,Wunderground v.1.13,2013-07-25 11:39:00,
2013-07-25 07:44:00,65.7,65.1,29.96,North,9,0.0,0.0,98,0.00,,,0.00,Wunderground v.1.13,2013-07-25 11:44:00,
2013-07-25 07:49:00,66.0,65.4,29.96,North,9,0.0,0.0,98,0.00,,,0.00,Wunderground v.1.13,2013-07-25 11:49:00,
2013-07-25 07:55:00,66.6,66.0,29.97,North,9,0.0,0.0,98,0.00,,,0.00,Wunderground v.1.13,2013-07-25 11:55:00,
2013-07-25 08:01:00,67.1,66.5,29.97,North,9,0.0,0.0,98,0.00,,,0.00,Wunderground v.1.13,2013-07-25 12:01:00,
2013-07-25 08:06:00,67.4,66.8,29.97,North,9,0.0,0.0,98,0.00,,,0.00,Wunderground v.1.13,2013-07-25 12:06:00,
2013-07-25 08:11:00,67.6,67.0,29.98,North,9,0.0,0.0,98,0.00,,,0.00,Wunderground v.1.13,2013-07-25 12:11:00,
2013-07-25 08:17:00,68.2,67.3,29.98,North,9,0.0,0.0,97,0.00,,,0.00,Wunderground v.1.13,2013-07-25 12:17:00,
2013-07-25 08:22:00,68.8,67.6,29.98,North,9,0.0,0.0,96,0.00,,,0.00,Wunderground v.1.13,2013-07-25 12:22:00,
2013-07-25 08:28:00,69.4,67.9,29.98,North,9,0.0,0.0,95,0.00,,,0.00,Wunderground v.1.13,2013-07-25 12:28:00,
2013-07-25 08:33:00,70.2,68.4,29.98,North,9,0.0,0.0,94,0.00,,,0.00,Wunderground v.1.13,2013-07-25 12:33:00,
2013-07-25 08:38:00,70.7,67.9,29.98,North,9,0.0,4.0,91,0.00,,,0.00,Wunderground v.1.13,2013-07-25 12:38:00,
2013-07-25 08:43:00,71.3,66.9,29.98,North,9,1.0,2.0,86,0.00,,,0.00,Wunderground v.1.13,2013-07-25 12:43:00,
2013-07-25 08:49:00,72.0,66.6,29.98,North,9,0.0,2.0,83,0.00,,,0.00,Wunderground v.1.13,2013-07-25 12:49:00,
2013-07-25 08:54:00,72.8,67.0,29.98,North,9,0.0,3.0,82,0.00,,,0.00,Wunderground v.1.13,2013-07-25 12:54:00,
2013-07-25 08:59:00,73.3,67.5,29.98,North,9,1.0,3.0,82,0.00,,,0.00,Wunderground v.1.13,2013-07-25 12:59:00,
2013-07-25 09:05:00,73.8,67.6,29.98,North,9,1.0,1.0,81,0.00,,,0.00,Wunderground v.1.13,2013-07-25 13:05:00,
2013-07-25 09:11:00,74.4,66.7,29.98,North,9,0.0,1.0,77,0.00,,,0.00,Wunderground v.1.13,2013-07-25 13:11:00,
2013-07-25 09:16:00,74.8,67.1,29.98,North,9,0.0,0.0,77,0.00,,,0.00,Wunderground v.1.13,2013-07-25 13:16:00,
2013-07-25 09:21:00,75.3,67.6,29.98,North,9,1.0,1.0,77,0.00,,,0.00,Wunderground v.1.13,2013-07-25 13:21:00,
2013-07-25 09:27:00,75.5,67.4,29.99,North,9,1.0,1.0,76,0.00,,,0.00,Wunderground v.1.13,2013-07-25 13:27:00,
2013-07-25 09:32:00,75.6,67.1,29.99,NNE,17,1.0,6.0,75,0.00,,,0.00,Wunderground v.1.13,2013-07-25 13:32:00,
2013-07-25 09:38:00,75.7,67.6,29.99,NE,34,2.0,4.0,76,0.00,,,0.00,Wunderground v.1.13,2013-07-25 13:38:00,
2013-07-25 09:43:00,75.6,67.1,29.99,SE,124,2.0,9.0,75,0.00,,,0.00,Wunderground v.1.13,2013-07-25 13:43:00,
2013-07-25 09:48:00,75.5,67.0,29.98,ESE,123,3.0,4.0,75,0.00,,,0.00,Wunderground v.1.13,2013-07-25 13:48:00,
2013-07-25 09:53:00,75.6,67.5,29.98,ESE,123,2.0,4.0,76,0.00,,,0.00,Wunderground v.1.13,2013-07-25 13:53:00,
2013-07-25 09:59:00,75.8,67.7,29.98,ESE,123,1.0,2.0,76,0.00,,,0.00,Wunderground v.1.13,2013-07-25 13:59:00,
2013-07-25 10:04:00,75.9,67.4,29.98,ESE,119,1.0,5.0,75,0.00,,,0.00,Wunderground v.1.13,2013-07-25 14:04:00,
2013-07-25 10:09:00,76.0,67.1,29.98,ESE,120,2.0,6.0,74,0.00,,,0.00,Wunderground v.1.13,2013-07-25 14:09:00,
2013-07-25 10:15:00,76.5,67.6,29.97,ESE,119,1.0,1.0,74,0.00,,,0.00,Wunderground v.1.13,2013-07-25 14:15:00,
2013-07-25 10:21:00,77.1,67.8,29.98,ESE,113,1.0,4.0,73,0.00,,,0.00,Wunderground v.1.13,2013-07-25 14:21:00,
2013-07-25 10:26:00,77.3,67.6,29.98,ESE,114,1.0,1.0,72,0.00,,,0.00,Wunderground v.1.13,2013-07-25 14:26:00,
2013-07-25 10:32:00,77.5,67.8,29.98,ESE,111,1.0,2.0,72,0.00,,,0.00,Wunderground v.1.13,2013-07-25 14:32:00,
2013-07-25 10:37:00,77.9,68.1,29.98,ESE,107,1.0,1.0,72,0.00,,,0.00,Wunderground v.1.13,2013-07-25 14:37:00,
2013-07-25 10:42:00,78.2,68.0,29.98,ESE,106,2.0,3.0,71,0.00,,,0.00,Wunderground v.1.13,2013-07-25 14:42:00,
2013-07-25 10:48:00,78.7,68.5,29.98,ESE,105,1.0,6.0,71,0.00,,,0.00,Wunderground v.1.13,2013-07-25 14:48:00,
2013-07-25 10:53:00,78.7,68.1,29.98,ESE,105,2.0,2.0,70,0.00,,,0.00,Wunderground v.1.13,2013-07-25 14:53:00,
2013-07-25 10:59:00,78.8,68.2,29.98,East,101,2.0,5.0,70,0.00,,,0.00,Wunderground v.1.13,2013-07-25 14:59:00,
2013-07-25 11:04:00,79.0,68.4,29.98,East,101,2.0,2.0,70,0.00,,,0.00,Wunderground v.1.13,2013-07-25 15:04:00,
2013-07-25 11:10:00,79.2,68.1,29.98,ESE,107,1.0,1.0,69,0.00,,,0.00,Wunderground v.1.13,2013-07-25 15:10:00,
2013-07-25 11:15:00,79.3,67.8,29.98,East,92,2.0,2.0,68,0.00,,,0.00,Wunderground v.1.13,2013-07-25 15:15:00,
2013-07-25 11:21:00,79.6,67.7,29.98,East,86,1.0,1.0,67,0.00,,,0.00,Wunderground v.1.13,2013-07-25 15:21:00,
2013-07-25 11:27:00,79.3,67.8,29.98,NE,49,2.0,6.0,68,0.00,,,0.00,Wunderground v.1.13,2013-07-25 15:27:00,
2013-07-25 11:32:00,78.4,67.0,29.98,NE,49,3.0,5.0,68,0.00,,,0.00,Wunderground v.1.13,2013-07-25 15:32:00,
2013-07-25 11:38:00,78.1,67.9,29.98,NE,45,1.0,6.0,71,0.00,,,0.00,Wunderground v.1.13,2013-07-25 15:38:00,
2013-07-25 11:43:00,78.7,68.9,29.98,NE,45,2.0,4.0,72,0.00,,,0.00,Wunderground v.1.13,2013-07-25 15:43:00,
2013-07-25 11:49:00,79.4,68.8,29.98,NE,44,1.0,4.0,70,0.00,,,0.00,Wunderground v.1.13,2013-07-25 15:49:00,
2013-07-25 11:54:00,79.5,68.9,29.98,NE,42,1.0,5.0,70,0.00,,,0.00,Wunderground v.1.13,2013-07-25 15:54:00,
2013-07-25 11:59:00,79.3,68.7,29.99,NE,42,1.0,2.0,70,0.00,,,0.00,Wunderground v.1.13,2013-07-25 15:59:00,
2013-07-25 12:05:00,79.4,68.8,29.99,NE,42,0.0,0.0,70,0.00,,,0.00,Wunderground v.1.13,2013-07-25 16:05:00,
2013-07-25 12:10:00,80.0,68.5,29.99,NE,42,1.0,1.0,68,0.00,,,0.00,Wunderground v.1.13,2013-07-25 16:10:00,
2013-07-25 12:15:00,79.9,68.0,29.99,NE,42,2.0,2.0,67,0.00,,,0.00,Wunderground v.1.13,2013-07-25 16:15:00,
2013-07-25 12:21:00,80.4,68.0,29.99,NE,42,1.0,3.0,66,0.00,,,0.00,Wunderground v.1.13,2013-07-25 16:21:00,
2013-07-25 12:27:00,80.8,67.5,29.99,NE,41,2.0,2.0,64,0.00,,,0.00,Wunderground v.1.13,2013-07-25 16:27:00,
2013-07-25 12:32:00,81.5,68.1,29.99,NE,41,2.0,4.0,64,0.00,,,0.00,Wunderground v.1.13,2013-07-25 16:32:00,
2013-07-25 12:38:00,81.5,67.7,29.99,NE,41,1.0,1.0,63,0.00,,,0.00,Wunderground v.1.13,2013-07-25 16:38:00,
2013-07-25 12:43:00,81.5,68.1,29.99,NE,41,0.0,1.0,64,0.00,,,0.00,Wunderground v.1.13,2013-07-25 16:43:00,
2013-07-25 12:49:00,81.4,67.6,29.99,NE,36,1.0,6.0,63,0.00,,,0.00,Wunderground v.1.13,2013-07-25 16:49:00,
2013-07-25 12:54:00,81.1,66.8,29.99,NE,42,3.0,3.0,62,0.00,,,0.00,Wunderground v.1.13,2013-07-25 16:54:00,
2013-07-25 13:00:00,81.6,67.8,29.99,NE,42,2.0,3.0,63,0.00,,,0.00,Wunderground v.1.13,2013-07-25 17:00:00,
2013-07-25 13:05:00,82.3,67.0,29.99,North,350,2.0,2.0,60,0.00,,,0.00,Wunderground v.1.13,2013-07-25 17:05:00,
2013-07-25 13:11:00,81.8,66.6,29.99,North,355,4.0,5.0,60,0.00,,,0.00,Wunderground v.1.13,2013-07-25 17:11:00,
2013-07-25 13:16:00,81.2,66.5,29.99,North,349,4.0,5.0,61,0.00,,,0.00,Wunderground v.1.13,2013-07-25 17:16:00,
2013-07-25 13:22:00,81.0,66.3,29.99,NNW,336,4.0,8.0,61,0.00,,,0.00,Wunderground v.1.13,2013-07-25 17:22:00,
2013-07-25 13:28:00,81.4,65.2,29.99,NW,325,4.0,7.0,58,0.00,,,0.00,Wunderground v.1.13,2013-07-25 17:28:00,
2013-07-25 13:33:00,81.7,64.5,29.99,NNW,331,4.0,5.0,56,0.00,,,0.00,Wunderground v.1.13,2013-07-25 17:33:00,
2013-07-25 13:39:00,82.2,64.4,29.99,NNW,329,4.0,5.0,55,0.00,,,0.00,Wunderground v.1.13,2013-07-25 17:39:00,
2013-07-25 13:44:00,82.9,65.6,29.99,NNW,329,4.0,4.0,56,0.00,,,0.00,Wunderground v.1.13,2013-07-25 17:44:00,
2013-07-25 13:49:00,83.8,65.9,29.99,NNW,327,3.0,5.0,55,0.00,,,0.00,Wunderground v.1.13,2013-07-25 17:49:00,
2013-07-25 13:55:00,83.4,63.9,29.99,NW,323,4.0,4.0,52,0.00,,,0.00,Wunderground v.1.13,2013-07-25 17:55:00,
2013-07-25 14:00:00,83.6,63.6,29.99,NW,321,4.0,8.0,51,0.00,,,0.00,Wunderground v.1.13,2013-07-25 18:00:00,
2013-07-25 14:05:00,83.4,63.9,29.99,NW,322,4.0,4.0,52,0.00,,,0.00,Wunderground v.1.13,2013-07-25 18:05:00,
2013-07-25 14:10:00,83.5,63.5,29.99,NW,321,4.0,6.0,51,0.00,,,0.00,Wunderground v.1.13,2013-07-25 18:10:00,
2013-07-25 14:15:00,83.2,63.2,29.99,NW,321,4.0,4.0,51,0.00,,,0.00,Wunderground v.1.13,2013-07-25 18:15:00,
2013-07-25 14:21:00,83.5,62.3,29.99,NW,321,3.0,3.0,49,0.00,,,0.00,Wunderground v.1.13,2013-07-25 18:21:00,
2013-07-25 14:26:00,83.7,61.9,29.99,NNW,343,2.0,2.0,48,0.00,,,0.00,Wunderground v.1.13,2013-07-25 18:26:00,
2013-07-25 14:31:00,84.3,63.1,29.99,NNW,342,3.0,4.0,49,0.00,,,0.00,Wunderground v.1.13,2013-07-25 18:31:00,
2013-07-25 14:37:00,84.7,64.0,29.99,NNW,343,2.0,2.0,50,0.00,,,0.00,Wunderground v.1.13,2013-07-25 18:37:00,
2013-07-25 14:43:00,85.0,63.7,29.99,North,355,2.0,7.0,49,0.00,,,0.00,Wunderground v.1.13,2013-07-25 18:43:00,
2013-07-25 14:48:00,84.7,63.4,29.99,North,5,2.0,2.0,49,0.00,,,0.00,Wunderground v.1.13,2013-07-25 18:48:00,
2013-07-25 14:54:00,84.9,65.9,29.99,North,5,1.0,7.0,53,0.00,,,0.00,Wunderground v.1.13,2013-07-25 18:54:00,
2013-07-25 15:00:00,84.7,66.2,29.99,NNE,15,2.0,2.0,54,0.00,,,0.00,Wunderground v.1.13,2013-07-25 19:00:00,
2013-07-25 15:07:00,85.6,66.5,29.99,NNE,15,2.0,4.0,53,0.00,,,0.00,Wunderground v.1.13,2013-07-25 19:07:00,
2013-07-25 15:12:00,85.6,66.0,29.99,NNW,338,3.0,5.0,52,0.00,,,0.00,Wunderground v.1.13,2013-07-25 19:12:00,
2013-07-25 15:17:00,85.8,65.6,29.99,NNW,338,3.0,3.0,51,0.00,,,0.00,Wunderground v.1.13,2013-07-25 19:17:00,
2013-07-25 15:22:00,85.9,65.7,29.99,NW,323,4.0,7.0,51,0.00,,,0.00,Wunderground v.1.13,2013-07-25 19:22:00,
2013-07-25 15:27:00,85.5,66.4,29.99,NW,323,3.0,3.0,53,0.00,,,0.00,Wunderground v.1.13,2013-07-25 19:27:00,
2013-07-25 15:32:00,86.0,66.3,29.99,NW,323,2.0,3.0,52,0.00,,,0.00,Wunderground v.1.13,2013-07-25 19:32:00,
2013-07-25 15:38:00,85.6,65.4,29.99,NNW,328,2.0,4.0,51,0.00,,,0.00,Wunderground v.1.13,2013-07-25 19:38:00,
2013-07-25 15:44:00,84.6,65.6,29.99,NNW,336,2.0,6.0,53,0.00,,,0.00,Wunderground v.1.13,2013-07-25 19:44:00,
2013-07-25 15:49:00,84.5,65.5,29.99,NNW,338,2.0,5.0,53,0.00,,,0.00,Wunderground v.1.13,2013-07-25 19:49:00,
2013-07-25 15:55:00,84.7,65.7,29.99,NNW,338,1.0,1.0,53,0.00,,,0.00,Wunderground v.1.13,2013-07-25 19:55:00,
2013-07-25 16:00:00,84.7,65.7,29.99,North,350,2.0,2.0,53,0.00,,,0.00,Wunderground v.1.13,2013-07-25 20:00:00,
2013-07-25 16:06:00,84.8,66.3,29.99,North,360,3.0,6.0,54,0.00,,,0.00,Wunderground v.1.13,2013-07-25 20:06:00,
2013-07-25 16:11:00,84.1,65.7,30.00,NNE,16,3.0,3.0,54,0.00,,,0.00,Wunderground v.1.13,2013-07-25 20:11:00,
2013-07-25 16:17:00,84.6,66.1,30.00,NNE,16,2.0,3.0,54,0.00,,,0.00,Wunderground v.1.13,2013-07-25 20:17:00,
2013-07-25 16:23:00,85.0,66.0,30.00,NNE,14,2.0,4.0,53,0.00,,,0.00,Wunderground v.1.13,2013-07-25 20:23:00,
2013-07-25 16:29:00,84.8,65.2,30.00,NW,321,4.0,7.0,52,0.00,,,0.00,Wunderground v.1.13,2013-07-25 20:29:00,
2013-07-25 16:35:00,84.6,64.5,30.00,NW,317,5.0,7.0,51,0.00,,,0.00,Wunderground v.1.13,2013-07-25 20:35:00,
2013-07-25 16:40:00,84.7,64.0,30.00,NW,317,4.0,4.0,50,0.00,,,0.00,Wunderground v.1.13,2013-07-25 20:40:00,
2013-07-25 16:46:00,85.1,64.9,30.00,NW,318,2.0,2.0,51,0.00,,,0.00,Wunderground v.1.13,2013-07-25 20:46:00,
2013-07-25 16:52:00,84.9,65.9,30.00,NNW,332,2.0,5.0,53,0.00,,,0.00,Wunderground v.1.13,2013-07-25 20:52:00,
2013-07-25 16:57:00,84.5,66.0,30.00,NNW,332,2.0,3.0,54,0.00,,,0.00,Wunderground v.1.13,2013-07-25 20:57:00,
2013-07-25 17:02:00,84.1,66.7,30.00,NNW,332,1.0,1.0,56,0.00,,,0.00,Wunderground v.1.13,2013-07-25 21:02:00,
2013-07-25 17:08:00,83.7,65.8,30.00,NNW,332,0.0,2.0,55,0.00,,,0.00,Wunderground v.1.13,2013-07-25 21:08:00,
2013-07-25 17:14:00,83.6,66.2,30.00,North,355,2.0,11.0,56,0.00,,,0.00,Wunderground v.1.13,2013-07-25 21:14:00,
2013-07-25 17:19:00,83.3,67.0,30.00,NNE,25,4.0,9.0,58,0.00,,,0.00,Wunderground v.1.13,2013-07-25 21:19:00,
2013-07-25 17:24:00,82.6,66.3,30.00,NNE,24,5.0,6.0,58,0.00,,,0.00,Wunderground v.1.13,2013-07-25 21:24:00,
2013-07-25 17:30:00,82.0,66.3,30.00,NNE,24,4.0,4.0,59,0.00,,,0.00,Wunderground v.1.13,2013-07-25 21:30:00,
2013-07-25 17:36:00,81.8,66.6,30.00,NNE,24,2.0,3.0,60,0.00,,,0.00,Wunderground v.1.13,2013-07-25 21:36:00,
2013-07-25 17:42:00,81.7,66.0,30.00,NNE,23,2.0,5.0,59,0.00,,,0.00,Wunderground v.1.13,2013-07-25 21:42:00,
2013-07-25 17:48:00,81.6,65.9,30.00,NNE,17,3.0,6.0,59,0.00,,,0.00,Wunderground v.1.13,2013-07-25 21:48:00,
2013-07-25 17:54:00,81.6,65.4,30.00,NNE,17,3.0,4.0,58,0.00,,,0.00,Wunderground v.1.13,2013-07-25 21:54:00,
2013-07-25 17:59:00,81.5,65.3,30.00,NNE,17,3.0,5.0,58,0.00,,,0.00,Wunderground v.1.13,2013-07-25 21:59:00,
2013-07-25 18:04:00,81.4,65.2,30.00,NNE,17,4.0,4.0,58,0.00,,,0.00,Wunderground v.1.13,2013-07-25 22:04:00,
2013-07-25 18:10:00,81.4,64.7,30.00,NNE,13,4.0,4.0,57,0.00,,,0.00,Wunderground v.1.13,2013-07-25 22:10:00,
2013-07-25 18:15:00,81.4,64.7,30.00,North,5,3.0,7.0,57,0.00,,,0.00,Wunderground v.1.13,2013-07-25 22:15:00,
2013-07-25 18:21:00,81.8,65.1,30.00,NNW,346,3.0,5.0,57,0.00,,,0.00,Wunderground v.1.13,2013-07-25 22:21:00,
2013-07-25 18:26:00,81.8,64.6,30.00,North,5,4.0,10.0,56,0.00,,,0.00,Wunderground v.1.13,2013-07-25 22:26:00,
2013-07-25 18:32:00,81.5,64.8,30.00,North,5,4.0,6.0,57,0.00,,,0.00,Wunderground v.1.13,2013-07-25 22:32:00,
2013-07-25 18:38:00,81.5,64.8,30.00,North,360,5.0,9.0,57,0.00,,,0.00,Wunderground v.1.13,2013-07-25 22:38:00,
2013-07-25 18:43:00,81.4,64.7,30.00,NNW,336,5.0,5.0,57,0.00,,,0.00,Wunderground v.1.13,2013-07-25 22:43:00,
2013-07-25 18:49:00,81.5,64.8,30.01,NNW,339,4.0,6.0,57,0.00,,,0.00,Wunderground v.1.13,2013-07-25 22:49:00,
2013-07-25 18:54:00,81.4,64.7,30.00,North,355,4.0,4.0,57,0.00,,,0.00,Wunderground v.1.13,2013-07-25 22:54:00,
2013-07-25 19:00:00,81.1,64.4,30.00,North,355,3.0,6.0,57,0.00,,,0.00,Wunderground v.1.13,2013-07-25 23:00:00,
2013-07-25 19:05:00,80.9,64.2,30.01,North,355,3.0,3.0,57,0.00,,,0.00,Wunderground v.1.13,2013-07-25 23:05:00,
2013-07-25 19:11:00,80.8,64.1,30.01,North,351,3.0,3.0,57,0.00,,,0.00,Wunderground v.1.13,2013-07-25 23:11:00,
2013-07-25 19:16:00,80.6,64.5,30.02,North,360,3.0,3.0,58,0.00,,,0.00,Wunderground v.1.13,2013-07-25 23:16:00,
2013-07-25 19:21:00,80.3,64.7,30.01,North,360,4.0,4.0,59,0.00,,,0.00,Wunderground v.1.13,2013-07-25 23:21:00,
2013-07-25 19:27:00,79.8,64.2,30.02,NNE,18,4.0,7.0,59,0.00,,,0.00,Wunderground v.1.13,2013-07-25 23:27:00,
2013-07-25 19:32:00,79.4,63.8,30.02,NNE,21,5.0,6.0,59,0.00,,,0.00,Wunderground v.1.13,2013-07-25 23:32:00,
2013-07-25 19:37:00,79.0,63.4,30.02,NNE,26,5.0,6.0,59,0.00,,,0.00,Wunderground v.1.13,2013-07-25 23:37:00,
2013-07-25 19:43:00,78.7,63.6,30.02,NNE,16,3.0,7.0,60,0.00,,,0.00,Wunderground v.1.13,2013-07-25 23:43:00,
2013-07-25 19:48:00,78.6,63.6,30.02,NNE,14,3.0,4.0,60,0.00,,,0.00,Wunderground v.1.13,2013-07-25 23:48:00,
2013-07-25 19:54:00,78.5,63.9,30.03,NNE,14,2.0,3.0,61,0.00,,,0.00,Wunderground v.1.13,2013-07-25 23:54:00,
2013-07-25 20:00:00,78.4,63.8,30.03,North,11,1.0,1.0,61,0.00,,,0.00,Wunderground v.1.13,2013-07-26 00:00:00,
2013-07-25 20:05:00,78.4,64.3,30.03,North,9,1.0,2.0,62,0.00,,,0.00,Wunderground v.1.13,2013-07-26 00:05:00,
2013-07-25 20:11:00,78.2,64.1,30.03,North,9,1.0,1.0,62,0.00,,,0.00,Wunderground v.1.13,2013-07-26 00:11:00,
2013-07-25 20:17:00,78.0,63.9,30.03,North,9,1.0,3.0,62,0.00,,,0.00,Wunderground v.1.13,2013-07-26 00:17:00,
2013-07-25 20:23:00,77.8,63.7,30.03,North,9,1.0,3.0,62,0.00,,,0.00,Wunderground v.1.13,2013-07-26 00:23:00,
2013-07-25 20:29:00,77.5,63.9,30.03,North,9,0.0,1.0,63,0.00,,,0.00,Wunderground v.1.13,2013-07-26 00:29:00,
2013-07-25 20:35:00,77.2,63.6,30.03,North,9,0.0,0.0,63,0.00,,,0.00,Wunderground v.1.13,2013-07-26 00:35:00,
2013-07-25 20:40:00,76.9,63.8,30.03,North,9,0.0,1.0,64,0.00,,,0.00,Wunderground v.1.13,2013-07-26 00:40:00,
2013-07-25 20:46:00,76.5,63.9,30.03,North,9,0.0,0.0,65,0.00,,,0.00,Wunderground v.1.13,2013-07-26 00:46:00,
2013-07-25 20:51:00,76.1,63.9,30.03,North,9,0.0,0.0,66,0.00,,,0.00,Wunderground v.1.13,2013-07-26 00:51:00,
2013-07-25 20:57:00,75.8,63.6,30.03,North,9,0.0,0.0,66,0.00,,,0.00,Wunderground v.1.13,2013-07-26 00:57:00,
2013-07-25 21:02:00,75.5,64.6,30.03,North,9,0.0,0.0,69,0.00,,,0.00,Wunderground v.1.13,2013-07-26 01:02:00,
2013-07-25 21:07:00,75.1,65.1,30.03,North,9,0.0,0.0,71,0.00,,,0.00,Wunderground v.1.13,2013-07-26 01:07:00,
2013-07-25 21:12:00,74.3,65.1,30.03,North,9,0.0,0.0,73,0.00,,,0.00,Wunderground v.1.13,2013-07-26 01:12:00,
2013-07-25 21:17:00,73.6,65.2,30.04,North,9,0.0,0.0,75,0.00,,,0.00,Wunderground v.1.13,2013-07-26 01:17:00,
2013-07-25 21:22:00,72.8,64.8,30.04,North,9,0.0,0.0,76,0.00,,,0.00,Wunderground v.1.13,2013-07-26 01:22:00,
2013-07-25 21:28:00,71.9,64.7,30.04,North,9,0.0,0.0,78,0.00,,,0.00,Wunderground v.1.13,2013-07-26 01:28:00,
2013-07-25 21:33:00,71.2,64.4,30.04,North,9,0.0,0.0,79,0.00,,,0.00,Wunderground v.1.13,2013-07-26 01:33:00,
2013-07-25 21:39:00,70.4,64.3,30.04,North,9,0.0,0.0,81,0.00,,,0.00,Wunderground v.1.13,2013-07-26 01:39:00,
2013-07-25 21:44:00,69.7,64.0,30.04,North,9,0.0,0.0,82,0.00,,,0.00,Wunderground v.1.13,2013-07-26 01:44:00,
2013-07-25 21:49:00,69.3,63.9,30.05,North,9,0.0,0.0,83,0.00,,,0.00,Wunderground v.1.13,2013-07-26 01:49:00,
2013-07-25 21:55:00,68.8,63.8,30.05,North,9,0.0,0.0,84,0.00,,,0.00,Wunderground v.1.13,2013-07-26 01:55:00,
2013-07-25 22:01:00,68.4,63.4,30.05,North,9,0.0,0.0,84,0.00,,,0.00,Wunderground v.1.13,2013-07-26 02:01:00,
2013-07-25 22:07:00,68.0,63.3,30.06,North,9,0.0,0.0,85,0.00,,,0.00,Wunderground v.1.13,2013-07-26 02:07:00,
2013-07-25 22:12:00,67.7,63.4,30.06,North,9,0.0,0.0,86,0.00,,,0.00,Wunderground v.1.13,2013-07-26 02:12:00,
2013-07-25 22:17:00,67.5,63.2,30.06,North,9,0.0,0.0,86,0.00,,,0.00,Wunderground v.1.13,2013-07-26 02:17:00,
2013-07-25 22:23:00,67.2,62.9,30.06,North,9,0.0,0.0,86,0.00,,,0.00,Wunderground v.1.13,2013-07-26 02:23:00,
2013-07-25 22:29:00,67.0,63.0,30.06,North,9,0.0,0.0,87,0.00,,,0.00,Wunderground v.1.13,2013-07-26 02:29:00,
2013-07-25 22:34:00,66.8,62.8,30.07,North,9,0.0,0.0,87,0.00,,,0.00,Wunderground v.1.13,2013-07-26 02:34:00,
2013-07-25 22:39:00,66.6,62.9,30.07,North,9,0.0,0.0,88,0.00,,,0.00,Wunderground v.1.13,2013-07-26 02:39:00,
2013-07-25 22:45:00,66.3,62.6,30.07,North,9,0.0,0.0,88,0.00,,,0.00,Wunderground v.1.13,2013-07-26 02:45:00,
2013-07-25 22:50:00,66.1,62.8,30.07,North,9,0.0,0.0,89,0.00,,,0.00,Wunderground v.1.13,2013-07-26 02:50:00,
2013-07-25 22:56:00,65.9,62.6,30.07,North,9,0.0,0.0,89,0.00,,,0.00,Wunderground v.1.13,2013-07-26 02:56:00,
2013-07-25 23:02:00,65.7,62.4,30.07,North,9,0.0,0.0,89,0.00,,,0.00,Wunderground v.1.13,2013-07-26 03:02:00,
2013-07-25 23:07:00,65.6,62.3,30.07,North,9,0.0,0.0,89,0.00,,,0.00,Wunderground v.1.13,2013-07-26 03:07:00,
2013-07-25 23:12:00,65.4,62.4,30.07,North,9,0.0,0.0,90,0.00,,,0.00,Wunderground v.1.13,2013-07-26 03:12:00,
2013-07-25 23:17:00,65.4,62.4,30.07,North,9,0.0,0.0,90,0.00,,,0.00,Wunderground v.1.13,2013-07-26 03:17:00,
2013-07-25 23:23:00,65.3,62.6,30.07,North,9,0.0,0.0,91,0.00,,,0.00,Wunderground v.1.13,2013-07-26 03:23:00,
2013-07-25 23:28:00,65.3,62.6,30.07,North,9,0.0,0.0,91,0.00,,,0.00,Wunderground v.1.13,2013-07-26 03:28:00,
2013-07-25 23:33:00,65.2,62.5,30.07,North,9,0.0,0.0,91,0.00,,,0.00,Wunderground v.1.13,2013-07-26 03:33:00,
2013-07-25 23:39:00,65.1,62.4,30.07,North,9,0.0,0.0,91,0.00,,,0.00,Wunderground v.1.13,2013-07-26 03:39:00,
2013-07-25 23:45:00,64.9,62.2,30.07,North,9,0.0,0.0,91,0.00,,,0.00,Wunderground v.1.13,2013-07-26 03:45:00,
2013-07-25 23:51:00,64.8,62.1,30.07,North,9,0.0,0.0,91,0.00,,,0.00,Wunderground v.1.13,2013-07-26 03:51:00,
2013-07-25 23:56:00,64.7,62.3,30.07,North,9,0.0,0.0,92,0.00,,,0.00,Wunderground v.1.13,2013-07-26 03:56:00,